Location: Edinburgh
(55.9500°N, 3.1600°W)
Time: 04:32:40
(UTC+01:00)

Vanguard 2 - All Passes

Search period start: 20 October 2017 00:00
Search period end: 29 October 2017 23:00
Orbit: 554 x 2939 km, 32.9° (Epoch: 19 October)

Date Brightness Start Highest point End Pass type
(mag) Time Alt. Az. Time Alt. Az. Time Alt. Az.
20 Oct - 10:01:05 10° SSW 10:07:42 16° S 10:12:59 10° SE daylight
20 Oct - 12:10:37 10° SW 12:15:19 14° SSW 12:19:10 10° SSE daylight
21 Oct - 08:11:37 10° S 08:17:09 13° SSE 08:21:57 10° SE daylight
21 Oct - 10:17:52 10° SW 10:25:21 18° S 10:31:09 10° SE daylight
21 Oct - 12:28:29 10° SW 12:32:50 14° SSW 12:36:26 10° S daylight
22 Oct - 08:27:00 10° SSW 08:34:45 16° SSE 08:41:08 10° SE daylight
22 Oct - 10:34:59 10° SW 10:42:58 19° S 10:49:04 10° SE daylight
22 Oct - 12:46:47 10° SW 12:50:16 12° SSW 12:53:17 10° S daylight
23 Oct - 06:41:04 10° SSE 06:43:56 11° SSE 06:46:40 10° SE visible
23 Oct - 08:43:12 10° SSW 08:52:23 19° S 08:59:39 10° SE daylight
23 Oct - 10:52:24 10° SW 11:00:33 20° S 11:06:45 10° SSE daylight
23 Oct - 13:06:06 10° SW 13:07:39 10° SSW 13:09:06 10° SSW daylight
24 Oct - 06:54:14 10° S 07:01:26 14° SSE 07:07:47 10° SE visible
24 Oct - 08:59:54 10° SW 09:10:00 22° S 09:17:49 10° SE daylight
24 Oct - 11:10:02 10° SW 11:18:05 19° SSW 11:24:14 10° SSE daylight
25 Oct - 07:09:32 10° SSW 07:18:58 18° SSE 07:26:56 10° ESE visible
25 Oct - 09:16:56 10° SW 09:27:37 23° S 09:35:45 10° SE daylight
25 Oct - 11:27:54 10° WSW 11:35:33 18° SSW 11:41:29 10° SSE daylight
26 Oct - 05:25:11 10° SSE 05:27:59 11° SE 05:30:41 10° SE visible
26 Oct - 07:25:38 10° SSW 07:36:31 21° SSE 07:45:29 10° ESE visible
26 Oct - 09:34:14 10° SW 09:45:11 24° S 09:53:29 10° SE daylight
26 Oct - 11:46:02 10° WSW 11:52:57 16° SSW 11:58:27 10° S daylight
27 Oct - 05:37:41 10° S 05:45:21 15° SSE 05:52:24 10° ESE visible
27 Oct - 07:42:13 10° SSW 07:54:04 24° SSE 08:03:42 10° ESE daylight
27 Oct - 09:51:44 10° SW 10:02:45 24° S 10:11:04 10° SE daylight
27 Oct - 12:04:35 10° WSW 12:10:15 14° SSW 12:14:58 10° S daylight
28 Oct - 05:52:44 10° S 06:02:45 18° SSE 06:11:47 10° ESE visible
28 Oct - 07:59:08 10° SW 08:11:39 26° S 08:21:41 10° SE daylight
28 Oct - 10:09:26 10° WSW 10:20:14 23° SSW 10:28:28 10° SSE daylight
28 Oct - 12:23:58 10° SW 12:27:29 12° SW 12:30:37 10° SSW daylight
29 Oct - 05:08:39 10° SSW 05:20:11 22° SSE 05:30:27 10° ESE visible
29 Oct - 07:16:19 10° SW 07:29:13 27° S 07:39:29 10° SE daylight
29 Oct - 09:27:20 10° WSW 09:37:40 22° SSW 09:45:40 10° SSE daylight
